Philip, SD

10:25 PM MST on February 21, 2017 (GMT -0700)
Philip

Weather History for KPHP - January, 2012

Change the Weather History Date:

Tuesday, January 24, 2012

  Actual Average Record
Temperature  
Mean Temperature 26 °F 23 °F  
Max Temperature 39 °F 35 °F 66 °F (2005)
Min Temperature 13 °F 10 °F -22 °F (1969)
Degree Days  
Heating Degree Days 39 42  
Month to date heating degree days 925 1037  
Since 1 July heating degree days 3413 3972  
Moisture  
Dew Point 26 °F    
Average Humidity 86    
Maximum Humidity 100    
Minimum Humidity 72    
Precipitation  
Precipitation 0.06 in 0.01 in 0.20 in (1956)
Month to date precipitation 0.21 0.24  
Year to date precipitation 0.21 0.24  
Sea Level Pressure  
Sea Level Pressure 30.14 in    
Wind  
Wind Speed 5 mph (WNW)    
Max Wind Speed 10 mph    
Max Gust Speed 12 mph    
Visibility 8 miles    
Events Fog , Rain    
T = Trace of Precipitation, MM = Missing Value Source: NWS Daily Summary

Daily Weather History Graph

Daily Weather History Graph

Search for Another Location

Airport or City:

Trip Planner

Search our weather history database for the weather conditions in past years. The results will help you decide how hot, cold, wet, or windy it might be!

Date:

Astronomy

Jan. 24, 2012 Rise Set
Actual Time 7:12 AM MST 4:45 PM MST
Civil Twilight 6:40 AM MST 5:16 PM MST
Nautical Twilight 6:05 AM MST 5:51 PM MST
Astronomical Twilight 5:31 AM MST 6:25 PM MST
Moon 7:37 AM MST (1/24) 6:44 PM MST (1/24)
Length of Visible Light 10h 35m
Length of Day
9h 32m
Waxing Crescent, 3% of the Moon is Illuminated
Jan 24
Waxing Crescent
Jan 30
First Quarter
Feb 7
Full
Feb 14
Last Quarter
Feb 21
New

Hourly Weather History & Observations

Time (MST) Temp. Windchill Dew Point Humidity Pressure Visibility Wind Dir Wind Speed Gust Speed Precip Events Conditions
12:55 AM 12.9 °F - 10.0 °F 88% 29.97 in 10.0 mi Calm Calm - N/A   Clear
1:55 AM 14.0 °F 6.5 °F 10.9 °F 88% 30.00 in 10.0 mi West 4.6 mph - N/A   Overcast
2:55 AM 16.0 °F - 12.9 °F 88% 29.99 in 10.0 mi Calm Calm - N/A   Overcast
3:55 AM 18.0 °F - 15.1 °F 88% 29.99 in 10.0 mi Calm Calm - N/A   Overcast
4:55 AM 19.0 °F - 16.0 °F 88% 30.01 in 10.0 mi Calm Calm - N/A   Overcast
5:55 AM 21.9 °F 17.2 °F 19.9 °F 92% 30.06 in 10.0 mi WSW 3.5 mph - N/A   Overcast
6:55 AM 21.9 °F 17.2 °F 19.0 °F 89% 30.07 in 10.0 mi WNW 3.5 mph - N/A   Overcast
7:55 AM 26.1 °F - 21.9 °F 84% 30.09 in 10.0 mi Calm Calm - N/A   Overcast
8:55 AM 28.9 °F 21.1 °F 21.9 °F 75% 30.12 in 10.0 mi NNW 8.1 mph - N/A   Overcast
9:55 AM 30.0 °F 23.2 °F 23.0 °F 75% 30.17 in 10.0 mi North 6.9 mph - N/A   Overcast
10:55 AM 35.1 °F 27.4 °F 30.9 °F 85% 30.17 in 10.0 mi NNW 10.4 mph - N/A   Overcast
11:51 AM 33.8 °F 24.8 °F 33.8 °F 100% 30.10 in 7.0 mi NNW 12.7 mph - 0.02 in Rain Rain
11:55 AM 34.0 °F 25.0 °F 33.1 °F 96% 30.17 in 6.0 mi NNW 12.7 mph - 0.02 in Rain Rain
12:37 PM 37.4 °F 30.3 °F 35.6 °F 93% 30.10 in 10.0 mi NNW 10.4 mph - 0.03 in Rain Light Rain
12:55 PM 36.0 °F 28.0 °F 35.1 °F 97% 30.18 in 10.0 mi NW 11.5 mph - 0.04 in Rain Light Rain
1:01 PM 35.6 °F 26.6 °F 33.8 °F 93% 30.10 in 10.0 mi NNW 13.8 mph - 0.00 in Rain Light Rain
1:10 PM 35.6 °F 27.5 °F 33.8 °F 93% 30.10 in 10.0 mi NNW 11.5 mph - 0.00 in Rain Light Rain
1:34 PM 35.6 °F 28.6 °F 33.8 °F 93% 30.10 in 10.0 mi NW 9.2 mph - 0.00 in Rain Light Rain
1:47 PM 35.6 °F 29.2 °F 35.6 °F 100% 30.10 in 10.0 mi NNW 8.1 mph - 0.00 in Rain Light Rain
1:55 PM 37.0 °F 29.8 °F 35.1 °F 93% 30.18 in 10.0 mi NNW 10.4 mph - 0.00 in   Overcast
2:18 PM 37.4 °F 32.1 °F 35.6 °F 93% 30.11 in 10.0 mi NNW 6.9 mph - N/A   Mostly Cloudy
2:55 PM 37.9 °F 33.5 °F 35.1 °F 89% 30.19 in 10.0 mi NNW 5.8 mph - N/A   Scattered Clouds
4:55 PM 34.0 °F - 32.0 °F 92% 30.22 in 10.0 mi Calm Calm - N/A   Clear
5:34 PM 32.0 °F - 30.2 °F 93% 30.15 in 1.8 mi Calm Calm - N/A   Clear
5:43 PM 32.0 °F - 30.2 °F 93% 30.16 in 0.2 mi Calm Calm - N/A Fog Fog
5:55 PM 30.9 °F 27.5 °F 30.0 °F 96% 30.23 in 0.8 mi West 3.5 mph - N/A   Clear
6:06 PM 30.2 °F 26.7 °F 30.2 °F 100% 30.17 in 2.0 mi West 3.5 mph - N/A   Clear
6:13 PM 30.2 °F 25.4 °F 30.2 °F 100% 30.17 in 7.0 mi WSW 4.6 mph - N/A   Clear
6:16 PM 28.4 °F 23.3 °F 28.4 °F 100% 30.17 in 1.2 mi WSW 4.6 mph - N/A   Clear
6:18 PM 28.4 °F 23.3 °F 28.4 °F 100% 30.17 in 0.8 mi WSW 4.6 mph - N/A   Mist
6:27 PM 30.2 °F 25.4 °F 30.2 °F 100% 30.17 in 1.2 mi West 4.6 mph - N/A   Clear
6:31 PM 30.2 °F 25.4 °F 28.4 °F 93% 30.17 in 3.0 mi West 4.6 mph - N/A   Clear
6:55 PM 27.0 °F 20.5 °F 26.1 °F 96% 30.25 in 10.0 mi West 5.8 mph - N/A   Clear
7:55 PM 24.1 °F 17.0 °F 21.9 °F 91% 30.25 in 10.0 mi WSW 5.8 mph - N/A   Clear
8:55 PM 21.9 °F 14.5 °F 19.9 °F 92% 30.23 in 10.0 mi West 5.8 mph - N/A   Clear
9:55 PM 21.0 °F 11.4 °F 18.0 °F 88% 30.23 in 10.0 mi West 8.1 mph - N/A   Clear
10:55 PM 19.0 °F 10.0 °F 15.1 °F 85% 30.21 in 10.0 mi West 6.9 mph - N/A   Clear
11:55 PM 19.9 °F 12.1 °F 16.0 °F 85% 30.19 in 10.0 mi West 5.8 mph - N/A   Clear